FENGYUN 1C DEB, 31252

Orbit data source: Space-Track

FENGYUN 1C DEB, 31252 is space debris in SSO originally from a launch on Mon, 10 May 1999 UTC launched from the Taiyaun Space Center, China (TSC). Fengyun 1C debris stems from the Chinese weather satellite Fengyun-1C, which was intentionally destroyed by a Chinese anti-satellite missile in 2007. This event dramatically increased the amount of space debris, with thousands of trackable fragments posing hazards to satellites and human spaceflight. The Fengyun 1C debris cloud has become a focal point in discussions about space sustainability and the need for international regulations to prevent the creation of new debris.

Loading next visibility...
Identifier
31252, 1999-025BMJ
Orbit
SSO
Country
Flag of CNCN / PRC
Related business
Manufacturer
Unknown
Mission
Spacecraft
Bus & Motor
Unknown
Mass
Unknown
Launch date (UTC)
1999-05-10 (27 years ago)
Launch vehicle
Unknown
Launch site
Taiyaun Space Center, China (TSC)
Object type
Payload
Rocket body
Debris
Shape & HBR
Unknown shape, 0.1 m
Radar Cross Section
Small (<0.1 m²)

Expand to show TLE details & history
Last TLE update: 2 days ago

TLE from 2 days ago
0 FENGYUN 1C DEB
1 31252U 99025BMJ 26206.31710014  .00000955  00000-0  24121-3 0  9993
2 31252  98.3038 223.9391 0210755 214.8170 143.9079 14.40890032  4411
Epoch: 2026-07-25T07:36Z
TLE epoch observation values (Epoch: 2026-07-25T07:36:37.452Z)
Latitude
-0.00003°
Longitude
166.75194°
Altitude
881.103 km
Speed
7.348 km/s
True Right ascension
14h 55m 45s
True Declination
0° 00' 00"
Sunlit
Object was in daylight at epoch
Visualization orbit readout
Latitude
Unknown
Longitude
Unknown
Altitude
Unknown
Speed
Unknown
Apparent Right ascension
Unknown
Apparent Declination
Unknown
Sunlit
N/A
Visualization observer readout
Local Sidereal Time
00:27:23
Azimuth
Unknown
Elevation
Unknown
Doppler factor
Unknown
Orbital elements
Apogee altitude
902.954 km
Perigee altitude
602.384 km
Semi-major axis
7,130.806 km
Eccentricity
0.02108
Inclination
98.3038°
RAAN
223.9391°
Arg. of periapsis
214.817°
True anomaly
145.30077°
Mean anomaly
143.9079°
Eccentric anomaly
144.60728°
Mean motion
3.60442 °/min
Orbital period
99.88 mins
BSTAR
0.00024121
Loading maneuver chart data...
Computing Atmospheric mass density...

Documentation

Showing up to 5 results
|